Date String (YYYY-MM-DD hh:mm:ss) UTC,Instrument flags,Ambient pressure (hPa),Sample flow (lpm),Bypass flow (lpm),Sample temperature (°C),Ambient temperature (°C),ASC tube jacket temperature (°C),LED temperature (°C),Box temperature (°C),Sample RH (%),Span deviation,Mass concentration (μg/m³),Mass concentration (μg/m³),Mass concentration (μg/m³)
DateTimeUTC,F1_M11,P_M11,Q1_M11,Q2_M11,T1_M11,T2_M11,T3_M11,T4_M11,T5_M11,U1_M11,ZSPAN_M11,X2_M11,X0_M11,X1_M11
2021-11-02 22:00:00,,0829.8,5.00,0.00,24.6,23.9,00.0,33.6,26.5,21.3,-001.9,0011.63,0015.37,0011.15
2021-11-02 22:01:00,,0829.8,5.00,0.00,24.6,23.9,00.0,33.6,26.5,21.3,-001.8,0011.72,0015.40,0011.20
2021-11-02 22:02:00,,0829.8,5.00,0.00,24.6,23.9,00.0,33.6,26.5,21.2,-001.8,0011.78,0015.83,0011.23
2021-11-02 22:03:00,,0829.8,5.00,0.00,24.6,23.9,00.0,33.6,26.5,21.2,-001.8,0011.83,0016.10,0011.25
2021-11-02 22:04:00,,0829.8,5.01,0.00,24.6,23.9,00.0,33.6,26.5,21.4,-001.6,0011.84,0016.08,0011.27
2021-11-02 22:05:00,,0829.8,5.00,0.00,24.7,23.9,00.0,33.6,26.5,21.3,-001.6,0011.89,0016.45,0011.31
2021-11-02 22:06:00,,0829.8,5.00,0.00,24.7,23.9,00.0,33.6,26.5,21.3,-001.8,0011.98,0016.90,0011.34
2021-11-02 22:07:00,,0829.8,5.01,0.00,24.7,23.9,00.0,33.6,26.5,21.3,-001.8,0012.00,0016.97,0011.35
2021-11-02 22:08:00,,0829.8,4.98,0.00,24.7,23.9,00.0,33.6,26.5,21.1,-001.8,0011.97,0016.87,0011.33
2021-11-02 22:09:00,,0829.8,5.00,0.00,24.7,23.9,00.0,33.6,26.5,21.0,-002.0,0011.95,0016.72,0011.31
2021-11-02 22:10:00,,0829.9,5.01,0.00,24.7,23.9,00.0,33.6,26.5,21.1,-002.3,0011.90,0016.31,0011.27
2021-11-02 22:11:00,,0829.9,5.00,0.00,24.7,23.9,00.0,33.6,26.5,21.0,-002.2,0011.85,0016.11,0011.24
2021-11-02 22:12:00,,0829.9,5.00,0.00,24.7,23.9,00.0,33.7,26.6,21.0,-002.2,0011.82,0015.96,0011.22
2021-11-02 22:13:00,,0829.9,5.01,0.00,24.7,23.9,00.0,33.7,26.5,21.2,-002.1,0011.78,0015.93,0011.22
2021-11-02 22:14:00,,0829.9,4.99,0.00,24.7,23.9,00.0,33.7,26.6,21.1,-002.1,0011.73,0015.64,0011.20
2021-11-02 22:15:00,,0829.8,5.00,0.00,24.7,23.9,00.0,33.7,26.6,21.1,-002.2,0011.71,0015.58,0011.18
2021-11-02 22:16:00,,0829.8,5.00,0.00,24.7,23.9,00.0,33.7,26.6,21.0,-002.2,0011.65,0015.19,0011.12
2021-11-02 22:17:00,,0829.9,5.00,0.00,24.7,24.0,00.0,33.7,26.6,21.1,-002.0,0011.53,0015.04,0011.06
2021-11-02 22:18:00,,0829.9,5.02,0.00,24.7,23.9,00.0,33.7,26.6,21.0,-002.0,0011.45,0015.31,0010.99
2021-11-02 22:19:00,,0829.9,5.00,0.00,24.7,23.9,00.0,33.7,26.6,21.0,-002.1,0011.45,0015.53,0010.95
2021-11-02 22:20:00,,0829.9,5.01,0.00,24.7,24.0,00.0,33.7,26.6,20.9,-001.8,0011.39,0015.73,0010.89
2021-11-02 22:21:00,,0829.9,5.00,0.00,24.7,24.0,00.0,33.7,26.6,21.0,-001.1,0011.34,0015.60,0010.85
2021-11-02 22:22:00,,0829.9,4.99,0.00,24.7,24.0,00.0,33.7,26.6,21.0,-001.2,0011.27,0015.54,0010.79
2021-11-02 22:23:00,,0830.0,5.01,0.00,24.7,24.0,00.0,33.7,26.6,21.0,-000.8,0011.20,0015.91,0010.73
2021-11-02 22:24:00,,0830.0,5.00,0.00,24.7,24.0,00.0,33.7,26.6,21.0,-001.1,0011.14,0015.82,0010.66
2021-11-02 22:25:00,,0830.0,4.99,0.00,24.7,24.0,00.0,33.7,26.6,20.9,-000.9,0011.06,0015.84,0010.59
2021-11-02 22:26:00,,0830.0,5.00,0.00,24.7,24.0,00.0,33.7,26.6,20.9,-001.1,0011.01,0015.82,0010.55
2021-11-02 22:27:00,,0830.0,4.99,0.00,24.8,24.0,00.0,33.7,26.6,21.1,-001.3,0010.98,0015.83,0010.51
2021-11-02 22:28:00,,0829.9,5.01,0.00,24.8,24.0,00.0,33.7,26.6,20.9,-001.4,0010.98,0016.24,0010.49
2021-11-02 22:29:00,,0830.0,5.00,0.00,24.8,24.0,00.0,33.7,26.6,20.9,-001.3,0010.98,0016.35,0010.49
2021-11-02 22:30:00,,0829.9,4.99,0.00,24.8,24.0,00.0,33.7,26.7,21.0,-001.2,0010.96,0016.23,0010.48
2021-11-02 22:31:00,,0830.0,5.01,0.00,24.8,24.0,00.0,33.8,26.7,21.0,-001.2,0010.97,0015.93,0010.50
2021-11-02 22:32:00,,0830.0,5.00,0.00,24.8,24.0,00.0,33.8,26.6,21.0,-001.4,0011.01,0016.16,0010.52
2021-11-02 22:33:00,,0830.0,5.00,0.00,24.8,24.0,00.0,33.8,26.6,21.1,-001.5,0011.04,0016.19,0010.54
2021-11-02 22:34:00,,0830.0,5.00,0.00,24.8,24.0,00.0,33.8,26.7,21.2,-001.6,0011.04,0015.90,0010.53
2021-11-02 22:35:00,,0830.0,4.99,0.00,24.8,24.0,00.0,33.8,26.7,21.0,-001.6,0011.05,0015.58,0010.53
2021-11-02 22:36:00,,0830.0,5.00,0.00,24.8,24.0,00.0,33.8,26.7,20.9,-001.8,0011.08,0015.34,0010.54
2021-11-02 22:37:00,,0830.0,5.00,0.00,24.8,24.1,00.0,33.8,26.7,21.1,-001.9,0011.08,0015.19,0010.56
2021-11-02 22:38:00,,0830.1,5.00,0.00,24.8,24.1,00.0,33.8,26.7,21.0,-002.1,0011.12,0015.26,0010.59
2021-11-02 22:39:00,,0830.1,5.00,0.00,24.8,24.1,00.0,33.8,26.7,21.0,-002.3,0011.16,0014.57,0010.61
2021-11-02 22:40:00,,0830.1,4.99,0.00,24.8,24.1,00.0,33.8,26.7,21.0,-002.2,0011.16,0014.38,0010.62
2021-11-02 22:41:00,,0830.1,5.00,0.00,24.8,24.1,00.0,33.8,26.7,20.9,-002.0,0011.18,0014.57,0010.65
2021-11-02 22:42:00,,0830.1,5.00,0.00,24.8,24.1,00.0,33.8,26.7,21.0,-002.1,0011.23,0014.69,0010.69
2021-11-02 22:43:00,,0830.1,5.00,0.00,24.8,24.1,00.0,33.8,26.7,21.0,-002.2,0011.24,0014.61,0010.71
2021-11-02 22:44:00,,0830.1,5.00,0.00,24.8,24.1,00.0,33.8,26.7,20.9,-002.2,0011.30,0014.76,0010.74
2021-11-02 22:45:00,,0830.0,5.00,0.00,24.8,24.1,00.0,33.8,26.7,20.8,-002.2,0011.35,0014.78,0010.79
2021-11-02 22:46:00,,0830.0,4.99,0.00,24.8,24.1,00.0,33.8,26.7,20.9,-002.4,0011.36,0014.78,0010.80
2021-11-02 22:47:00,,0830.0,5.00,0.00,24.8,24.1,00.0,33.8,26.7,21.0,-002.5,0011.37,0014.75,0010.83
2021-11-02 22:48:00,,0830.1,5.01,0.00,24.8,24.1,00.0,33.8,26.7,21.0,-002.4,0011.38,0014.78,0010.84
2021-11-02 22:49:00,,0830.1,5.00,0.00,24.8,24.1,00.0,33.8,26.7,21.2,-002.4,0011.37,0014.71,0010.86
2021-11-02 22:50:00,,0830.1,4.99,0.00,24.8,24.1,00.0,33.8,26.7,21.2,-002.2,0011.35,0014.63,0010.88
2021-11-02 22:51:00,,0830.1,5.00,0.00,24.8,24.1,00.0,33.8,26.7,21.3,-002.0,0011.38,0014.23,0010.92
2021-11-02 22:52:00,,0830.1,5.01,0.00,24.9,24.1,00.0,33.8,26.7,21.4,-002.0,0011.45,0014.08,0010.95
2021-11-02 22:53:00,,0830.1,5.00,0.00,24.8,24.1,00.0,33.8,26.7,21.3,-002.0,0011.46,0014.06,0010.99
2021-11-02 22:54:00,,0830.1,4.99,0.00,24.8,24.1,00.0,33.8,26.7,21.1,-002.0,0011.48,0014.20,0011.02
2021-11-02 22:55:00,,0830.1,5.01,0.00,24.9,24.1,00.0,33.8,26.7,21.0,-001.9,0011.48,0014.20,0011.04
2021-11-02 22:56:00,,0830.1,4.98,0.00,24.9,24.1,00.0,33.9,26.7,21.1,-001.9,0011.48,0014.17,0011.07
2021-11-02 22:57:00,,0830.1,5.02,0.00,24.9,24.1,00.0,33.8,26.7,21.2,-001.9,0011.52,0015.05,0011.12
2021-11-02 22:58:00,,0830.1,5.00,0.00,24.9,24.1,00.0,33.9,26.7,21.3,-001.7,0011.58,0015.54,0011.17
2021-11-02 22:59:00,,0830.1,4.99,0.00,24.9,24.1,00.0,33.9,26.7,21.2,-001.6,0011.66,0016.18,0011.22
